Regional Weather Roundup
Issued by NWS

Home | Current Version | Previous Version | Text Only | Print | Product List | Glossary Off
Versions: 1 2 3 4 5 6 7 8 9 10 11 12 13 14 15 16 17 18 19 20 21 22 23 24 25 26 27 28 29 30 31 32 33 34 35 36 37 38 39 40 41 42 43 44 45 46 47 48 49 50

000
ASUS44 KMEG 200510
RWRTN
TENNESSEE HOURLY STATE WEATHER ROUNDUP
NATIONAL WEATHER SERVICE MEMPHIS TN
1100 PM CST SUN NOV 19 2017

TNZ002-004-019-021-049-052-054-088>092-200600-
WEST TENNESSEE

CITY           SKY/WX    TMP DP  RH WIND       PRES   REMARKS
MEMPHIS INTL   CLEAR     36  29  75 S3        30.26S
NWS MEMPHIS      N/A     31 N/A N/A MISG        N/A
JACKSON        CLEAR     28  26  92 CALM      30.27R
DYERSBURG      CLEAR     29  26  89 CALM      30.27S
COVINGTON      CLEAR     27  27 100 CALM      30.27S
UNION CITY     CLEAR     28  25  86 CALM      30.25F
BOLIVAR        CLEAR     27  27 100 CALM      30.26R
HUNTINGDON     CLEAR     28  25  86 CALM      30.25S
LEXINGTON      CLEAR     28  27  93 CALM      30.26S
SELMER         CLEAR     28  27  93 CALM      30.26R
SAVANNAH       CLEAR     28  28 100 CALM      30.26R
$$

TNZ008-025-027-028-033-062-065-066-200600-
NORTH MIDDLE TENNESSEE

CITY           SKY/WX    TMP DP  RH WIND       PRES   REMARKS
NASHVILLE      CLEAR     33  24  69 CALM      30.26R
PORTLAND       CLEAR     28  25  86 S5        30.24S WCI  23
CLARKSVILLE    CLEAR     30  24  78 CALM      30.26R
SMYRNA         CLEAR     26  23  88 CALM      30.27S
COOKEVILLE     CLEAR     25  25 100 CALM      30.22F
GALLATIN       CLEAR     28  25  86 CALM      30.28R
CROSSVILLE     CLEAR     26  23  88 CALM      30.19S
$$

TNZ061-075-076-078-094-096-097-200600-
SOUTH MIDDLE TENNESSEE

CITY           SKY/WX    TMP DP  RH WIND       PRES   REMARKS
FAYETTEVILLE   CLEAR     32  27  80 N6        30.22R WCI  26
TULLAHOMA      CLEAR     27  25  93 CALM      30.22R
WINCHESTER     CLEAR     27  25  93 CALM      30.23R
MCMINNVILLE    CLEAR     28  25  86 CALM      30.23S
COLUMBIA       CLEAR     30  27  86 CALM      30.23S
SHELBYVILLE    CLEAR     27  27 100 CALM      30.24S
$$

TNZ017-018-042-046-047-200600-
NORTHEAST TENNESSEE

CITY           SKY/WX    TMP DP  RH WIND       PRES   REMARKS
TRI CITIES     CLEAR     33  27  78 NW6       30.18R WCI  28
ELIZABETHTON   CLEAR     28  27  93 CALM      30.18R
$$

TNZ012-013-036-069-073-074-200600-
CENTRAL EAST TENNESSEE

CITY           SKY/WX    TMP DP  RH WIND       PRES   REMARKS
KNOXVILLE      CLEAR     35  30  82 CALM      30.20R
OAK RIDGE      CLEAR     33  29  85 CALM      30.22S
DOWNTOWN KNOXV CLEAR     32  32 100 CALM      30.22S
GATLINBURG     CLEAR     30  28  93 CALM      30.21R
MORRISTOWN     CLEAR     34  28  80 N6        30.19R WCI  29
JACKSBORO      CLEAR     28  28 100 CALM      30.25R
$$

TNZ083-085-099-200600-
SOUTHEAST TENNESSEE

CITY           SKY/WX    TMP DP  RH WIND       PRES   REMARKS
CHATTANOOGA    CLEAR     36  25  64 NW6       30.22S WCI  31
$$

SKY/WX REPORTED AS FAIR MEANS FEW OR NO CLOUDS BELOW
12 THOUSAND FEET.




USA.gov is the U.S. government's official web portal to all federal, state and local government web resources and services.